Location: Kikino
(54.4440°N, 112.0940°W)
Time: 19:16:29
(UTC+00:00)

A-11 Canister half - Pass Details

Date: 19 May 2024
Orbit: 1525 x 1683 km, 47.3° (Epoch: 12 June)

Event Time Altitude Azimuth Distance (km) Brightness Sun altitude
Rises 12:16:12 0° 284° (WNW) 4,825 11.1 6.7°
Reaches altitude 10° 12:20:03 10° 272° (W) 3,862 10.6 7.2°
Maximum altitude 12:27:17 24° 224° (SW) 2,949 10.1 8.1°
Drops below altitude 10° 12:34:38 10° 176° (S) 3,924 11.0 9.1°
Sets 12:38:37 0° 164° (SSE) 4,920 11.6 9.7°
